Current weather by "City, St" or "zip code"  
 

Current Conditions: Osceola Municipal Airport, IA

Fair with Haze and Windy


67.0 F

Last Updated on Oct 31 2020, 1:55 pm CDT
Humidity: 33%
Wind Speed: SW 26.5 G 35.7 mph
Barometer 29.89 in
Dewpoint: 37.2 F
Visibility: 5.00 mi
Precip: --
Heat Index: NA
Wind Chill: NA
Current conditions at:

Osceola Municipal Airport, IA (KI75)

Lat: 41.05222 Lon: 93.68966

Local Radar Image active severe weather and emergency alerts image image weather storm and storm spotter reports image weather observation monitoring service image
Local
Radar
Active
Alerts
Storm Reports Obs
Monitoring

Sign-up For Email & Text Message Weather Alert Notification Services



Advertise Here

Observation History for Osceola Municipal Airport, IA


Time Wind
(mph)
Vis
(mi)
Weather Precip (in) Temperature (F) Relative
Humidity
Wind
Chill
(F)
Heat
Index
(F)
Pressure
Air Dwpt altimeter
(in)
sea level
(mb)
Rmks
1:55 pm CDT SW 26.5 G 35.7 5.00 Fair with Haze and Windy -- 67.0 37.2 33% NA NA 29.89 M
12:55 pm CDT S 24.2 G 29.9 7.00 Fair and Breezy -- 66.0 38.7 37% NA NA 29.92 M
10:15 am CDT S 20.7 G 32.2 10.00 Fair and Breezy -- 55.0 39.0 56% 50 NA 29.98 M
9:55 am CDT S 19.6 G 26.5 10.00 Fair -- 53.0 39.2 59% 48 NA 29.99 M
8:55 am CDT S 15.0 G 20.7 10.00 Fair -- 46.0 38.5 77% 40 NA 29.99 M
7:55 am CDT S 10.4 10.00 Fair -- 41.0 36.5 85% 35 NA 30.01 M
6:55 am CDT S 8.1 10.00 Fair -- 39.0 35.1 85% 33 NA 30.04 M
5:55 am CDT S 10.4 10.00 Fair -- 38.0 33.8 84% 31 NA 30.05 M
4:55 am CDT SE 11.5 10.00 Fair -- 39.0 33.4 80% 32 NA 30.06 M
3:55 am CDT SE 11.5 10.00 Fair -- 39.0 32.9 80% 32 NA 30.07 M
2:55 am CDT SE 11.5 10.00 Fair -- 39.0 32.4 78% 32 NA 30.09 M
1:55 am CDT SE 10.4 10.00 Fair -- 39.0 32.0 75% 32 NA 30.12 M
12:55 am CDT SE 9.2 10.00 Fair -- 39.0 32.0 77% 33 NA 30.14 M
12:35 am CDT SE 6.9 10.00 Fair -- 38.0 32.0 78% 33 NA 30.15 M
11:55 pm CDT SE 6.9 10.00 Fair -- 39.0 32.0 75% 34 NA 30.16 M
10:55 pm CDT SE 6.9 10.00 Fair -- 39.0 32.0 75% 34 NA 30.17 M
9:55 pm CDT SE 6.9 10.00 Fair -- 39.0 32.0 75% 34 NA 30.18 M
8:55 pm CDT E 3.5 10.00 Fair -- 39.0 31.8 75% NA NA 30.19 M
7:55 pm CDT SE 6.9 10.00 Fair -- 42.0 31.6 68% 38 NA 30.19 M
6:55 pm CDT E 5.8 10.00 Fair -- 44.0 31.8 63% 41 NA 30.18 M
5:55 pm CDT E 5.8 10.00 Fair -- 49.0 32.2 53% 47 NA 30.18 M
4:55 pm CDT SE 10.4 10.00 Fair -- 53.0 32.0 45% 50 NA 30.19 M
3:55 pm CDT SE 11.5 10.00 Fair -- 54.0 32.0 44% 51 NA 30.19 M
2:55 pm CDT SE 4.6 10.00 Fair -- 53.0 31.6 44% 52 NA 30.21 M

Regional Weather Observation


Des Moines International Airport, IA (KDSM)

A Few Clouds and Breezy
66.0 F

Chariton, IA (KCNC)

Fair and Breezy
66.0 F

Creston Municipal Airport, IA (KCSQ)

Fair and Windy
64.0 F

Ankeny Regional Airport, IA (KIKV)

Fair and Breezy
66.0 F

Knoxville, IA (KOXV)

Fair
68.0 F

Perry Municipal Airport, IA (KPRO)

Fair and Breezy
64.0 F